| time (UTC) | temp C | wind direction | speed KPH | gust KPH | rain 1hr cm | rain 24hr cm | rain mn cm | humidity % | barometer mb |
| 20260505200638 | 25 | 70 | 0.0 | 8.0 | 0.00 | 0.00 | 0.00 | 100 | 1013.9 |
| 20260505200138 | 25 | 175 | 1.6 | 3.2 | 0.00 | 0.00 | 0.00 | 100 | 1013.9 |
| 20260505195638 | 25 | 272 | 0.0 | 12.9 | 0.00 | 0.00 | 0.00 | 100 | 1014.0 |
| 20260505194640 | 25 | 247 | 0.0 | 12.9 | 0.00 | 0.00 | 0.00 | 100 | 1014.3 |
| 20260505194138 | 25 | 264 | 1.6 | 4.8 | 0.00 | 0.00 | 0.00 | 100 | 1014.2 |
| 20260505193639 | 25 | 303 | 3.2 | 8.0 | 0.00 | 0.00 | 0.00 | 100 | 1014.3 |
| 20260505193138 | 25 | 147 | 4.8 | 9.7 | 0.00 | 0.00 | 0.00 | 100 | 1014.2 |
| 20260505192638 | 25 | 295 | 4.8 | 9.7 | 0.00 | 0.00 | 0.00 | 100 | 1014.2 |
| 20260505191639 | 25 | 312 | 1.6 | 6.4 | 0.00 | 0.00 | 0.00 | 100 | 1014.4 |
| 20260505190638 | 25 | 317 | 6.4 | 6.4 | 0.00 | 0.00 | 0.00 | 100 | 1014.6 |
| 20260505190138 | 25 | 306 | 3.2 | 9.7 | 0.00 | 0.00 | 0.00 | 100 | 1014.5 |
| 20260505181638 | 25 | 333 | 0.0 | 4.8 | 0.00 | 0.00 | 0.00 | 100 | 1015.1 |
| 20260505180638 | 25 | 345 | 3.2 | 8.0 | 0.00 | 0.00 | 0.00 | 100 | 1015.0 |
| 20260505180138 | 25 | 277 | 1.6 | 8.0 | 0.00 | 0.00 | 0.00 | 100 | 1015.3 |
| 20260505175638 | 25 | 344 | 3.2 | 8.0 | 0.00 | 0.00 | 0.00 | 100 | 1015.2 |
| 20260505174639 | 25 | 254 | 1.6 | 8.0 | 0.00 | 0.00 | 0.00 | 100 | 1015.2 |
| 20260505174137 | 24 | 127 | 0.0 | 9.7 | 0.00 | 0.00 | 0.00 | 100 | 1015.4 |
| 20260505173638 | 24 | 295 | 0.0 | 3.2 | 0.00 | 0.00 | 0.00 | 100 | 1015.3 |
| 20260505165637 | 23 | 267 | 0.0 | 12.9 | 0.00 | 0.00 | 0.00 | 100 | 1015.7 |
| 20260505165138 | 23 | 310 | 1.6 | 6.4 | 0.00 | 0.00 | 0.00 | 100 | 1015.9 |
| 20260505164138 | 23 | 206 | 4.8 | 11.3 | 0.00 | 0.00 | 0.00 | 100 | 1015.9 |
| 20260505163137 | 23 | 219 | 3.2 | 8.0 | 0.00 | 0.00 | 0.00 | 100 | 1016.0 |
| 20260505162638 | 23 | 285 | 3.2 | 8.0 | 0.00 | 0.00 | 0.00 | 100 | 1016.0 |
| 20260505160638 | 23 | 153 | 0.0 | 14.5 | 0.00 | 0.00 | 0.00 | 100 | 1016.3 |
| 20260505160137 | 22 | 127 | 1.6 | 6.4 | 0.00 | 0.00 | 0.00 | 100 | 1016.4 |
| 20260505153138 | 21 | 220 | 0.0 | 4.8 | 0.00 | 0.00 | 0.00 | 100 | 1016.7 |
| 20260505152637 | 21 | 292 | 3.2 | 4.8 | 0.00 | 0.00 | 0.00 | 100 | 1016.7 |
| 20260505152138 | 21 | 181 | 3.2 | 9.7 | 0.00 | 0.00 | 0.00 | 100 | 1016.7 |
| 20260505151638 | 21 | 250 | 0.0 | 6.4 | 0.00 | 0.00 | 0.00 | 100 | 1016.7 |
| 20260505150638 | 21 | 277 | 4.8 | 6.4 | 0.00 | 0.00 | 0.00 | 100 | 1016.8 |
| 20260505150137 | 21 | 208 | 3.2 | 8.0 | 0.00 | 0.00 | 0.00 | 100 | 1016.7 |
| 20260505124137 | 13 | 267 | 0.0 | 0.0 | 0.00 | 0.00 | 0.00 | 100 | 1016.8 |
| 20260505123713 | 12 | 267 | 0.0 | 0.0 | 0.00 | 0.00 | 0.00 | 100 | 1016.8 |
| 20260505123637 | 12 | 267 | 0.0 | 0.0 | 0.00 | 0.00 | 0.00 | 100 | 1016.8 |
| 20260505122637 | 12 | 267 | 0.0 | 0.0 | 0.00 | 0.00 | 0.00 | 100 | 1016.7 |
| 20260505122138 | 12 | 267 | 0.0 | 0.0 | 0.00 | 0.00 | 0.00 | 100 | 1016.7 |
| 20260505121636 | 12 | 267 | 0.0 | 1.6 | 0.00 | 0.00 | 0.00 | 100 | 1016.6 |
| 20260505121142 | 12 | 267 | 0.0 | 1.6 | 0.00 | 0.00 | 0.00 | 100 | 1016.6 |
| 20260505120638 | 11 | 133 | 0.0 | 0.0 | 0.00 | 0.00 | 0.00 | 100 | 1016.5 |
| 20260505120137 | 11 | 133 | 0.0 | 0.0 | 0.00 | 0.00 | 0.00 | 100 | 1016.6 |
| 20260505115714 | 11 | 133 | 0.0 | 0.0 | 0.00 | 0.00 | 0.00 | 100 | 1016.7 |
| 20260505115637 | 11 | 133 | 0.0 | 0.0 | 0.00 | 0.00 | 0.00 | 100 | 1016.7 |
| 20260505115137 | 11 | 133 | 0.0 | 0.0 | 0.00 | 0.00 | 0.00 | 100 | 1016.7 |
| 20260505114638 | 11 | 133 | 0.0 | 0.0 | 0.00 | 0.00 | 0.00 | 100 | 1016.7 |
| 20260505114137 | 11 | 133 | 0.0 | 0.0 | 0.00 | 0.00 | 0.00 | 100 | 1016.5 |
| 20260505113637 | 11 | 133 | 0.0 | 0.0 | 0.00 | 0.00 | 0.00 | 100 | 1016.5 |
| 20260505113137 | 11 | 133 | 0.0 | 0.0 | 0.00 | 0.00 | 0.00 | 100 | 1016.5 |
| 20260505112137 | 11 | 133 | 0.0 | 0.0 | 0.00 | 0.00 | 0.00 | 100 | 1016.4 |
| 20260505110637 | 10 | 133 | 0.0 | 0.0 | 0.00 | 0.00 | 0.00 | 100 | 1016.3 |
| 20260505110138 | 10 | 133 | 0.0 | 0.0 | 0.00 | 0.00 | 0.00 | 100 | 1016.3 |
| 20260505102136 | 11 | 133 | 0.0 | 0.0 | 0.00 | 0.00 | 0.00 | 100 | 1015.9 |
| 20260505101637 | 11 | 133 | 0.0 | 0.0 | 0.00 | 0.00 | 0.00 | 100 | 1015.9 |
| 20260505101140 | 11 | 133 | 0.0 | 0.0 | 0.00 | 0.00 | 0.00 | 100 | 1015.8 |
| 20260505100637 | 11 | 133 | 0.0 | 0.0 | 0.00 | 0.00 | 0.00 | 100 | 1015.7 |
| 20260505100137 | 11 | 133 | 0.0 | 0.0 | 0.00 | 0.00 | 0.00 | 100 | 1015.7 |
| 20260505095637 | 11 | 133 | 0.0 | 0.0 | 0.00 | 0.00 | 0.00 | 100 | 1015.6 |
| 20260505095137 | 11 | 133 | 0.0 | 0.0 | 0.00 | 0.00 | 0.00 | 100 | 1015.6 |
| 20260505093636 | 11 | 133 | 0.0 | 0.0 | 0.00 | 0.00 | 0.00 | 100 | 1015.4 |
| 20260505093137 | 11 | 133 | 0.0 | 0.0 | 0.00 | 0.00 | 0.00 | 100 | 1015.4 |
| 20260505092636 | 11 | 133 | 0.0 | 0.0 | 0.00 | 0.00 | 0.00 | 100 | 1015.5 |
| 20260505091637 | 11 | 133 | 0.0 | 0.0 | 0.00 | 0.00 | 0.00 | 100 | 1015.4 |
| 20260505085637 | 11 | 133 | 0.0 | 0.0 | 0.00 | 0.00 | 0.00 | 100 | 1015.3 |
| 20260505085245 | 11 | 133 | 0.0 | 0.0 | 0.00 | 0.00 | 0.00 | 100 | 1015.3 |
| 20260505085137 | 11 | 133 | 0.0 | 0.0 | 0.00 | 0.00 | 0.00 | 100 | 1015.3 |
| 20260505082636 | 12 | 133 | 0.0 | 0.0 | 0.00 | 0.00 | 0.00 | 100 | 1015.4 |
| 20260505082137 | 11 | 133 | 0.0 | 0.0 | 0.00 | 0.00 | 0.00 | 100 | 1015.2 |
| 20260505081637 | 12 | 133 | 0.0 | 0.0 | 0.00 | 0.00 | 0.00 | 100 | 1015.2 |
| 20260505081143 | 12 | 133 | 0.0 | 0.0 | 0.00 | 0.00 | 0.00 | 100 | 1015.3 |
| 20260505080636 | 12 | 133 | 0.0 | 0.0 | 0.00 | 0.00 | 0.00 | 100 | 1015.2 |
| 20260505075136 | 12 | 133 | 0.0 | 0.0 | 0.00 | 0.00 | 0.00 | 100 | 1015.1 |
| 20260505074637 | 12 | 133 | 0.0 | 0.0 | 0.00 | 0.00 | 0.00 | 100 | 1015.0 |
| 20260505074136 | 12 | 133 | 0.0 | 0.0 | 0.00 | 0.00 | 0.00 | 100 | 1015.0 |
| 20260505073637 | 12 | 133 | 0.0 | 0.0 | 0.00 | 0.00 | 0.00 | 100 | 1015.1 |
| 20260505073136 | 12 | 133 | 0.0 | 0.0 | 0.00 | 0.00 | 0.00 | 100 | 1014.9 |
| 20260505072753 | 13 | 133 | 0.0 | 0.0 | 0.00 | 0.00 | 0.00 | 100 | 1015.0 |
| 20260505072636 | 13 | 133 | 0.0 | 0.0 | 0.00 | 0.00 | 0.00 | 100 | 1015.0 |
| 20260505072137 | 13 | 133 | 0.0 | 0.0 | 0.00 | 0.00 | 0.00 | 100 | 1015.0 |
| 20260505071637 | 13 | 133 | 0.0 | 0.0 | 0.00 | 0.00 | 0.00 | 100 | 1015.0 |
| 20260505070636 | 13 | 133 | 0.0 | 0.0 | 0.00 | 0.00 | 0.00 | 100 | 1014.8 |
| 20260505065637 | 13 | 133 | 0.0 | 0.0 | 0.00 | 0.00 | 0.00 | 100 | 1014.8 |
| 20260505065137 | 13 | 133 | 0.0 | 0.0 | 0.00 | 0.00 | 0.00 | 100 | 1014.8 |
| 20260505064136 | 13 | 133 | 0.0 | 0.0 | 0.00 | 0.00 | 0.00 | 100 | 1014.9 |
| 20260505063637 | 13 | 133 | 0.0 | 0.0 | 0.00 | 0.00 | 0.00 | 100 | 1014.9 |
| 20260505063136 | 13 | 133 | 0.0 | 0.0 | 0.00 | 0.00 | 0.00 | 100 | 1015.0 |
| 20260505062637 | 14 | 133 | 0.0 | 0.0 | 0.00 | 0.00 | 0.00 | 100 | 1015.0 |
| 20260505062136 | 14 | 133 | 0.0 | 0.0 | 0.00 | 0.00 | 0.00 | 100 | 1014.9 |
| 20260505061741 | 14 | 133 | 0.0 | 0.0 | 0.00 | 0.00 | 0.00 | 100 | 1015.0 |
| 20260505061638 | 14 | 133 | 0.0 | 0.0 | 0.00 | 0.00 | 0.00 | 100 | 1015.0 |
| 20260505060636 | 15 | 133 | 0.0 | 0.0 | 0.00 | 0.00 | 0.00 | 100 | 1014.9 |
| 20260505060137 | 15 | 133 | 0.0 | 0.0 | 0.00 | 0.00 | 0.00 | 100 | 1015.0 |
| 20260505055636 | 15 | 133 | 0.0 | 0.0 | 0.00 | 0.00 | 0.00 | 100 | 1015.0 |
| 20260505054719 | 15 | 133 | 0.0 | 1.6 | 0.00 | 0.00 | 0.00 | 100 | 1015.0 |
| 20260505054638 | 15 | 133 | 0.0 | 1.6 | 0.00 | 0.00 | 0.00 | 100 | 1015.0 |
| 20260505054136 | 15 | 133 | 0.0 | 1.6 | 0.00 | 0.00 | 0.00 | 100 | 1015.1 |
| 20260505053636 | 15 | 191 | 0.0 | 0.0 | 0.00 | 0.00 | 0.00 | 100 | 1015.2 |
| 20260505052636 | 15 | 191 | 0.0 | 0.0 | 0.00 | 0.00 | 0.00 | 100 | 1015.3 |
| 20260505052212 | 15 | 191 | 0.0 | 0.0 | 0.00 | 0.00 | 0.00 | 100 | 1015.3 |
| 20260505052137 | 15 | 191 | 0.0 | 0.0 | 0.00 | 0.00 | 0.00 | 100 | 1015.3 |
| 20260505050636 | 15 | 237 | 0.0 | 0.0 | 0.00 | 0.00 | 0.00 | 100 | 1015.4 |
| 20260505050136 | 16 | 237 | 0.0 | 0.0 | 0.00 | 0.00 | 0.00 | 100 | 1015.4 |
| 20260505041637 | 16 | 135 | 0.0 | 3.2 | 0.00 | 0.00 | 0.00 | 100 | 1015.5 |
| 20260505040636 | 17 | 63 | 0.0 | 0.0 | 0.00 | 0.00 | 0.00 | 100 | 1015.4 |
| 20260505040136 | 17 | 63 | 0.0 | 3.2 | 0.00 | 0.00 | 0.00 | 100 | 1015.3 |
| 20260505035637 | 17 | 63 | 0.0 | 3.2 | 0.00 | 0.00 | 0.00 | 100 | 1015.4 |
| 20260505034635 | 17 | 84 | 0.0 | 6.4 | 0.00 | 0.00 | 0.00 | 100 | 1015.3 |
| 20260505034136 | 17 | 84 | 0.0 | 6.4 | 0.00 | 0.00 | 0.00 | 100 | 1015.3 |
| 20260505033636 | 18 | 127 | 0.0 | 6.4 | 0.00 | 0.00 | 0.00 | 100 | 1015.3 |
| 20260505033136 | 18 | 205 | 3.2 | 8.0 | 0.00 | 0.00 | 0.00 | 100 | 1015.3 |
| 20260505032635 | 18 | 191 | 0.0 | 4.8 | 0.00 | 0.00 | 0.00 | 100 | 1015.4 |
| 20260505032209 | 18 | 191 | 0.0 | 8.0 | 0.00 | 0.00 | 0.00 | 100 | 1015.4 |
| 20260505032136 | 18 | 191 | 0.0 | 8.0 | 0.00 | 0.00 | 0.00 | 100 | 1015.4 |
| 20260505030756 | 18 | 240 | 0.0 | 6.4 | 0.00 | 0.00 | 0.00 | 100 | 1015.4 |
| 20260505030636 | 18 | 240 | 0.0 | 6.4 | 0.00 | 0.00 | 0.00 | 100 | 1015.4 |
| 20260505030135 | 18 | 222 | 1.6 | 6.4 | 0.00 | 0.00 | 0.00 | 100 | 1015.5 |
| 20260505025135 | 18 | 247 | 0.0 | 3.2 | 0.00 | 0.00 | 0.00 | 100 | 1015.4 |
| 20260505024637 | 18 | 150 | 0.0 | 4.8 | 0.00 | 0.00 | 0.00 | 100 | 1015.2 |
| 20260505024136 | 18 | 198 | 4.8 | 4.8 | 0.00 | 0.00 | 0.00 | 100 | 1015.2 |
| 20260505023637 | 18 | 168 | 0.0 | 3.2 | 0.00 | 0.00 | 0.00 | 100 | 1015.2 |
| 20260505022635 | 18 | 250 | 0.0 | 4.8 | 0.00 | 0.00 | 0.00 | 100 | 1015.0 |
| 20260505022136 | 19 | 115 | 0.0 | 8.0 | 0.00 | 0.00 | 0.00 | 100 | 1015.0 |
| 20260505021636 | 19 | 151 | 0.0 | 8.0 | 0.00 | 0.00 | 0.00 | 100 | 1015.0 |
| 20260505020136 | 19 | 15 | 0.0 | 4.8 | 0.00 | 0.00 | 0.00 | 100 | 1014.8 |
| 20260505015635 | 18 | 322 | 1.6 | 1.6 | 0.00 | 0.00 | 0.00 | 100 | 1014.7 |
| 20260505015135 | 19 | 123 | 0.0 | 6.4 | 0.00 | 0.00 | 0.00 | 100 | 1014.8 |
| 20260505014637 | 18 | 205 | 1.6 | 9.7 | 0.00 | 0.00 | 0.00 | 100 | 1014.7 |
| 20260505014135 | 18 | 153 | 0.0 | 1.6 | 0.00 | 0.00 | 0.00 | 100 | 1014.6 |
| 20260505013636 | 17 | 187 | 0.0 | 4.8 | 0.00 | 0.00 | 0.00 | 100 | 1014.5 |
| 20260505013135 | 18 | 352 | 0.0 | 0.0 | 0.00 | 0.00 | 0.00 | 100 | 1014.4 |
| 20260505012636 | 18 | 352 | 0.0 | 0.0 | 0.00 | 0.00 | 0.00 | 100 | 1014.3 |
| 20260505012135 | 18 | 352 | 0.0 | 0.0 | 0.00 | 0.00 | 0.00 | 100 | 1014.3 |
| 20260505011636 | 18 | 352 | 0.0 | 0.0 | 0.00 | 0.00 | 0.00 | 100 | 1014.2 |
| 20260505010136 | 18 | 352 | 0.0 | 0.0 | 0.00 | 0.00 | 0.00 | 100 | 1014.1 |
| 20260505005635 | 18 | 352 | 0.0 | 0.0 | 0.00 | 0.00 | 0.00 | 100 | 1014.0 |
| 20260505003635 | 19 | 216 | 0.0 | 0.0 | 0.00 | 0.00 | 0.00 | 100 | 1013.9 |